Weather History for New Delhi, India

Change the Weather History Date:

Sunday, March 11, 2012

  Actual Average Record
Temperature  
Mean Temperature 66 °F -  
Max Temperature 80 °F 88 °F 91 °F (2004)
Min Temperature 51 °F 64 °F 51 °F (2012)
Growing Degree Days 16 (Base 50)    
Moisture  
Dew Point 36 °F    
Average Humidity 36    
Maximum Humidity 71    
Minimum Humidity 12    
Precipitation  
Precipitation 0.00 in - - ()
Sea Level Pressure  
Sea Level Pressure 29.93 in    
Wind  
Wind Speed 2 mph ()    
Max Wind Speed 9 mph    
Max Gust Speed -    
Visibility 2.5 miles    
Events      
Averages and records for this station are not official NWS values.
T = Trace of Precipitation, MM = Missing Value Source: Averaged Metar Reports

Daily Weather History Graph

Daily Weather History Graph

Search for Another Location

Airport:

Trip Planner

Search our weather history database for the weather conditions in past years. The results will help you decide how hot, cold, wet, or windy it might be!

Date:

Astronomy

Mar. 11, 2012 Rise Set
Actual Time 6:35 AM IST 6:27 PM IST
Civil Twilight 6:12 AM IST 6:51 PM IST
Nautical Twilight 5:44 AM IST 7:18 PM IST
Astronomical Twilight 5:17 AM IST 7:46 PM IST
Moon 9:53 PM IST (3/11) 8:13 AM IST (3/11)
Length of Visible Light 12h 39m
Length of Day
11h 52m
Waning Gibbous, 89% of the Moon is Illuminated
Mar 11
Waning Gibbous
Mar 15
Last Quarter
Mar 22
New
Mar 31
First Quarter
Apr 7
Full

Hourly Weather History & Observations

Time (IST) Temp. Dew Point Humidity Pressure Visibility Wind Dir Wind Speed Gust Speed Precip Events Conditions
12:00 AM 62.6 °F 42.8 °F 48% 29.95 in - Calm Calm - N/A   Haze
1:00 AM 60.8 °F 42.8 °F 52% 29.95 in 1.7 mi Calm Calm - N/A   Haze
1:30 AM 60.8 °F 42.8 °F 52% 29.92 in 1.7 mi Calm Calm - N/A   Haze
2:00 AM 59.0 °F 42.8 °F 55% 29.92 in 1.7 mi Calm Calm - N/A   Haze
2:30 AM 57.2 °F 42.8 °F 59% 29.92 in 1.7 mi Calm Calm - N/A   Haze
3:30 AM 57.2 °F 42.8 °F 59% 29.92 in 2.2 mi Calm Calm - N/A   Haze
4:00 AM 57.2 °F 42.8 °F 59% 29.92 in 2.2 mi Calm Calm - N/A   Haze
4:30 AM 55.4 °F 42.8 °F 63% 29.92 in 2.2 mi Calm Calm - N/A   Haze
5:00 AM 55.4 °F 42.8 °F 63% 29.92 in 2.2 mi Calm Calm - N/A   Haze
5:30 AM 53.6 °F 42.8 °F 67% 29.92 in 2.2 mi Calm Calm - N/A   Haze
6:00 AM 53.6 °F 42.8 °F 67% 29.92 in - Calm Calm - N/A   Haze
6:30 AM 51.8 °F 42.8 °F 71% 29.92 in - Calm Calm - N/A   Haze
7:30 AM 51.8 °F 42.8 °F 71% 29.95 in 1.6 mi Calm Calm - N/A   Haze
8:30 AM 57.2 °F 44.6 °F 63% 29.98 in 1.2 mi Calm Calm - N/A   Smoke
10:00 AM 68.0 °F 39.2 °F 35% 30.01 in 2.2 mi Calm Calm - N/A   Haze
10:30 AM 69.8 °F 37.4 °F 31% 30.01 in 2.5 mi WNW 3.5 mph - N/A   Haze
11:00 AM 71.6 °F 35.6 °F 27% 29.98 in 2.8 mi WSW 6.9 mph - N/A   Haze
11:30 AM 73.4 °F 35.6 °F 25% 29.98 in 2.8 mi West 4.6 mph - N/A   Haze
12:00 PM 75.2 °F 35.6 °F 24% 29.98 in 2.8 mi WNW 8.1 mph - N/A   Haze
12:30 PM 77.0 °F 32.0 °F 19% 29.98 in 2.8 mi SW 5.8 mph - N/A   Haze
1:00 PM 78.8 °F 30.2 °F 17% 29.95 in 2.8 mi WNW 4.6 mph - N/A   Haze
2:00 PM 78.8 °F 28.4 °F 16% 29.92 in 3.1 mi NW 5.8 mph - N/A   Haze
2:30 PM 78.8 °F 26.6 °F 15% 29.92 in 3.1 mi NNW 5.8 mph - N/A   Haze
3:00 PM 80.6 °F 26.6 °F 14% 29.92 in 3.1 mi NNW 5.8 mph - N/A   Haze
3:30 PM 78.8 °F 26.6 °F 15% 29.89 in 3.1 mi NNW 6.9 mph - N/A   Haze
4:00 PM 78.8 °F 26.6 °F 15% 29.89 in 3.1 mi NNW 6.9 mph - N/A   Haze
4:30 PM 78.8 °F 23.0 °F 13% 29.86 in 3.1 mi NNW 6.9 mph - N/A   Haze
5:00 PM 78.8 °F 21.2 °F 12% 29.86 in 3.1 mi NW 9.2 mph - N/A   Haze
5:30 PM 78.8 °F 24.8 °F 14% 29.86 in 3.1 mi NW 8.1 mph - N/A   Haze
6:00 PM 77.0 °F 24.8 °F 14% 29.89 in 3.1 mi NNW 8.1 mph - N/A   Haze
6:30 PM 75.2 °F 28.4 °F 18% 29.89 in 2.8 mi NNW 8.1 mph - N/A   Haze
7:00 PM 73.4 °F 28.4 °F 19% 29.89 in 2.5 mi NNW 6.9 mph - N/A   Haze
7:30 PM 71.6 °F 32.0 °F 23% 29.89 in 2.5 mi Calm Calm - N/A   Haze
8:00 PM 69.8 °F 33.8 °F 27% 29.92 in 2.5 mi ENE 4.6 mph - N/A   Haze
8:30 PM 66.2 °F 33.8 °F 30% 29.95 in 2.5 mi ESE 3.5 mph - N/A   Haze
9:00 PM 66.2 °F 35.6 °F 32% 29.95 in 2.2 mi Calm Calm - N/A   Haze
9:30 PM 66.2 °F 37.4 °F 35% 29.95 in 2.2 mi Calm Calm - N/A   Haze
10:00 PM 64.4 °F 39.2 °F 40% 29.95 in 2.2 mi Calm Calm - N/A   Haze
10:30 PM 64.4 °F 39.2 °F 40% 29.95 in - Calm Calm - N/A   Haze
11:30 PM 64.4 °F 39.2 °F 40% 29.95 in 1.9 mi East 3.5 mph - N/A   Haze